Погода в Заречном

Украина / Ровненская область     51°49′31″N   26°08′34″E
темп.,
°C
ветер,
м/с
пор.,
м/с
влажн.,
%
обл.,
%
осадки,
мм/ч
давл.,
гПа
погр.,
м
9 марта, вт
вт923:00−5сз268320 0.0 1018180
02:00−5сз258524 0.0 1020191
05:00−4ссз257876 0.0 1020428
08:00−5с357638 0.0 1022522
11:00−3с335598 0.0 1023958
14:00−1с224296 0.0 10231201
17:00−2ссв2245100 0.0 10231064
20:00−4всв225698 0.0 102468
10 марта, ср
ср1023:00−4юв2557100 0.0 1025299
02:00−5юв246382 0.0 1024142
05:00−5юв246747 0.0 1024138
08:00−4юв246368 0.0 1024258
11:000ююв234616 0.0 10241182
14:00+1ююв223949 0.0 10231574
17:00+1вюв1145100 0.0 10221246
20:00−2вюв1254100 0.0 102322
11 марта, чт
чт1123:00−3юв228071 0.0 102472
02:00−3юв238536 0.0 1024106
05:00−3вюв259468 0.1 1024206
08:00−2юв369083 0.4 1024400
11:000ююв466794 0.1 1024928
14:00+1ююв476497 0.1 10231109
17:00+1ююв5865100 0.1 10211085
20:00−1ююв5117598 0.1 1020851
12 марта, пт
пт1223:00−1ююв71463100 0.0 1019896
02:00−1ююв71559100 0.0 1016842
05:00−2ююв81593100 0.6 1012697
08:00−1ю81492100 1.8 1011790
11:00+1ю71294100 0.9 1010550
14:00+3юз41197100 3.8 1009588
17:00+5з4117796 1.0 1009984
20:00+3з5129194 1.2 1012715
13 марта, сб
сб1323:00+2зюз3797100 0.1 1014257
02:000юз239594 0.1 101488
05:00−1ююз399221 0.0 1014206
08:00+1ююз3108542 0.0 1014312
11:00+5ююз5976100 0.0 1013546
14:00+8ююз696983 0.1 10111092
17:00+5ююз41285100 0.6 1011600
20:00+2юз2797100 3.9 1012239